Location: Nairn
(57.5833°N, 3.8667°W)
Time: 16:30:27
(UTC+00:00)

S-56A Canister/Altair - Pass Details

Date: 27 November 2020
Orbit: 633 x 2499 km, 38.9° (Epoch: 19 January)

Event Time Altitude Azimuth Distance (km) Brightness Sun altitude
Rises 20:23:07 0° 218° (SW) 5,203 12.0 -36.4°
Reaches altitude 10° 20:28:38 10° 199° (SSW) 3,790 11.0 -37.1°
Enters shadow 20:29:55 12° 193° (SSW) 3,513 10.8 -37.2°
Maximum altitude 20:33:30 15° 168° (SSE) 2,983 - -37.7°
Drops below altitude 10° 20:37:34 10° 135° (SE) 3,037 - -38.2°
Sets 20:41:11 0° 113° (ESE) 3,685 - -38.6°
